Location: Newark
(41.0400°S, 62.7845°W)
Time: 23:10:34
(UTC+00:00)

Courier 1B Rocket - Pass Details

Date: 30 November 2021
Orbit: 920 x 1202 km, 28.2° (Epoch: 28 January)

Event Time Altitude Azimuth Distance (km) Brightness Sun altitude
Rises 18:15:50 0° 289° (WNW) 4,104 8.8 55.5°
Reaches altitude 10° 18:19:03 10° 299° (WNW) 3,140 8.4 55.0°
Maximum altitude 18:25:43 31° 357° (N) 1,944 7.2 53.8°
Drops below altitude 10° 18:32:13 10° 56° (NE) 3,050 7.5 52.7°
Sets 18:35:18 0° 65° (ENE) 3,971 7.9 52.1°
